Вернуться в каталог

STARLINK-4074

АктивенСвязьVLEO
NORAD 52678·PAYLOAD·🇺🇸 United States

Запущен May 18, 2022 с Cape Canaveral Space Force Station

Loading…

Ближайшие Пролёты (ближайшие 24 часа)

TLE

СвежийSource: CelesTrak SupGP

Эпоха: Sep 15, 2026, 02:02 UTC

1 52678C 22053Y   26258.08520833  .00013759  00000+0  44261-3 0  2584
2 52678  53.1614   8.0326 0000995  86.2540 106.7340 15.31684876    18

Отслеживайте STARLINK-4074 в реальном времени с AllMySat

Download on the App Store